Location: Central Coast
(33.3208°S, 151.2336°E)
Time: 11:38:39
(UTC+11:00)

OTV 5 (USA 277) - Pass Details

Date: 15 October 2017
Orbit: 404 x 417 km, 43.0° (Epoch: 07 September)

Event Time Altitude Azimuth Distance (km) Brightness Sun altitude
Exits shadow 05:04:39 31° 314° (NW) 749 ? -14.9°
Maximum altitude 05:06:05 73° 32° (NNE) 431 ? -14.6°
Drops below altitude 10° 05:09:25 10° 117° (ESE) 1,477 ? -14.0°
Sets 05:11:32 0° 118° (ESE) 2,342 ? -13.5°
